Djibouti-1B

operational
NORAD ID: 62402 Int'l Des: 2024-247 Owner: CERD/MONTP Country: DJ
LEOCIRCULAR

Djibouti-1Bについて

説明を読み込み中...

リアルタイム位置

3D地球を読み込み中...

次回通過

高度履歴

Altitude vs Time

uPlot chart will show altitude changes over time

軌道要素

1 62402U 24247AB 25340.79509275 .00048765 00000-0 12625-2 0 9999
2 62402 44.9754 245.6285 0007731 147.5072 212.6292 15.38352748 53744
Epoch: Dec 6, 2025 • Age: 13 hours

現在のステータス

高度 453.1 km
速度 7.65 km/s
衛星直下点 40.88°N, 108.2°E
打ち上げ日 Dec 21, 2024
運用期間 0.9 years
タイプ other

技術仕様

分類 Payload
質量 1.00 kg
乾燥質量 1.00 kg
総質量 1.00 kg
長さ 0.10 m
直径 0.10 m
スパン 0.10 m
形状 Box
製造者 MONTP
バスタイプ Cubesat 1U
フェーズステータス In Orbit
所有者/国 CERD/MONTP/DJ

大規模コンステレーション

Loading constellations...